Location: ??????????
(54.7560°N, 39.1389°E)
Time: 11:24:37
(UTC+00:00)

Meteor 1-21 - Pass Details

Date: 19 May 2025
Orbit: 845 x 884 km, 81.2° (Epoch: 13 June)

Event Time Altitude Azimuth Distance (km) Brightness Sun altitude
Exits shadow 23:24:55 14° 201° (SSW) 2,220 5.7 -10.6°
Maximum altitude 23:29:51 74° 286° (WNW) 890 4.3 -10.3°
Drops below altitude 10° 23:35:31 10° 12° (NNE) 2,499 7.9 -9.8°
Sets 23:37:59 0° 14° (NNE) 3,445 9.0 -9.7°
